Spokane Fairchild, WA
on Saturday, November 3, 2012

Saturday
Previous Day Next Day
Daily Summary
 ActualAverage (KGEG)Record (KGEG)
Temperature
Mean Temperature °F 40°F  
Max Temperature 49°F 48°F 69°F (1908)
Min Temperature 39°F 33°F 8°F (1935)
Degree Days
Heating Degree Days 20 25  
Month to date heating degree days 73  
Since 1 July heating degree days 861  
Cooling Degree Days 0 0  
Month to date cooling degree days 0  
Year to date cooling degree days 450  
Moisture
Dew Point 46°F   
Average Humidity 100    
Maximum Humidity 100    
Minimum Humidity 100    
Precipitation
Precipitation 0.13 in 0.07 in 0.90 in (1958)
Month to date precipitation 0.19  
Year to date precipitation 12.15  
Snow
Snow 0.00 in 0.10 in 2.20 in (1893)
Month to date snowfall 0.2  
Since 1 July snowfall 0.3  
Since 1 September snowfall 0.3  
Snow Depth in   
Wind
Wind Speed 6 mph   
Max Wind Speed 14 mph   
Max Gust Speed 22 mph   
Visibility 8 miles   
Events Rain   

Key: T is trace of precipitation, MM is missing value
Source: NWS Daily Summary
Time(PDT)TemperatureDew PointHumidity Pressure Visibility Wind DirectionWind SpeedGust SpeedPrecipitationEvents Conditions
12:55 AM 43.7°F 43.7°F 100% 30.06 in 10.0 miles NNE 6.9 mph - N/A   Overcast
1:55 AM 44.1°F 44.1°F 100% 30.07 in 10.0 miles NNE 8.1 mph - N/A   Overcast
2:55 AM 43.2°F 43.2°F 100% 30.07 in 10.0 miles NNE 4.6 mph - N/A   Overcast
3:39 AM 41.0°F 41.0°F 100% 30.06 in 8.0 miles NE 3.5 mph - N/A   Partly Cloudy
3:55 AM 40.5°F 40.5°F 100% 30.06 in 5.0 miles NE 5.8 mph - N/A   Scattered Clouds
4:01 AM 41.0°F 41.0°F 100% 30.06 in 6.0 miles NE 5.8 mph - N/A   Mostly Cloudy
4:55 AM 39.9°F 39.9°F 100% 30.06 in 2.5 miles NE 4.6 mph - N/A   Partly Cloudy
4:56 AM 39.2°F 39.2°F 100% 30.07 in 2.5 miles NE 4.6 mph - N/A   Partly Cloudy
4:58 AM 39.2°F 39.2°F 100% 30.07 in 1.8 miles NE 4.6 mph - N/A   Scattered Clouds
5:00 AM 39.2°F 39.2°F 100% 30.07 in 1.2 miles NE 4.6 mph - N/A   Scattered Clouds
5:02 AM 39.2°F 39.2°F 100% 30.07 in 1.0 miles NE 4.6 mph - N/A   Mist
5:05 AM 39.2°F 39.2°F 100% 30.07 in 0.8 miles NE 5.8 mph - N/A   Mist
5:07 AM 41.0°F 41.0°F 100% 30.07 in 0.8 miles NE 5.8 mph - N/A   Mist
5:11 AM 41.0°F 41.0°F 100% 30.06 in 0.8 miles NE 5.8 mph - N/A   Mist
5:25 AM 41.0°F 41.0°F 100% 30.07 in 0.8 miles NE 3.5 mph - N/A   Mist
5:29 AM 41.0°F 41.0°F 100% 30.07 in 0.8 miles NE 4.6 mph - N/A   Mostly Cloudy
5:31 AM 41.0°F 41.0°F 100% 30.07 in 1.0 miles NE 5.8 mph - N/A   Mostly Cloudy
5:33 AM 41.0°F 41.0°F 100% 30.07 in 1.0 miles NE 5.8 mph - N/A   Mostly Cloudy
5:35 AM 41.0°F 41.0°F 100% 30.07 in 1.2 miles NE 6.9 mph - N/A   Overcast
5:37 AM 41.0°F 41.0°F 100% 30.07 in 1.5 miles NE 6.9 mph - N/A   Overcast
5:39 AM 41.0°F 41.0°F 100% 30.08 in 2.0 miles NE 6.9 mph - N/A   Overcast
5:42 AM 41.0°F 41.0°F 100% 30.08 in 3.0 miles NE 8.1 mph - N/A   Overcast
5:55 AM 41.9°F 41.9°F 100% 30.08 in 10.0 miles NE 5.8 mph - 0.00 in   Overcast
6:55 AM 42.6°F 42.6°F 100% 30.08 in 10.0 miles NE 5.8 mph - N/A   Overcast
7:21 AM 42.8°F 42.8°F 100% 30.08 in 10.0 miles NE 6.9 mph - N/A Rain Light Rain
7:55 AM 42.8°F 42.8°F 100% 30.09 in 10.0 miles ENE 3.5 mph - 0.00 in Rain Light Rain
8:55 AM 43.3°F 43.3°F 100% 30.09 in 10.0 miles East 3.5 mph - 0.02 in Rain Light Rain
9:09 AM 42.8°F 42.8°F 100% 30.10 in 10.0 miles Calm Calm - N/A   Overcast
9:24 AM 44.6°F 44.6°F 100% 30.10 in 10.0 miles East 3.5 mph - N/A Rain Light Rain
9:55 AM 45.1°F 45.1°F 100% 30.10 in 10.0 miles East 3.5 mph - 0.01 in Rain Light Rain
10:04 AM 44.6°F 44.6°F 100% 30.10 in 10.0 miles ESE 3.5 mph - N/A   Overcast
10:05 AM 44.6°F 44.6°F 100% 30.10 in 10.0 miles ESE 4.6 mph - N/A   Overcast
10:06 AM 44.6°F 44.6°F 100% 30.10 in 10.0 miles ESE 4.6 mph - N/A Rain Light Rain
10:13 AM 46.4°F 46.4°F 100% 30.10 in 10.0 miles SE 4.6 mph - N/A Rain Light Rain
10:18 AM 46.4°F 46.4°F 100% 30.10 in 10.0 miles ESE 3.5 mph - N/A   Light Drizzle
10:22 AM 46.4°F 46.4°F 100% 30.10 in 10.0 miles ESE 4.6 mph - N/A   Overcast
10:23 AM 46.4°F 46.4°F 100% 30.10 in 10.0 miles ESE 4.6 mph - N/A   Light Drizzle
10:25 AM 46.4°F 46.4°F 100% 30.10 in 10.0 miles ESE 4.6 mph - N/A   Overcast
10:28 AM 46.4°F 46.4°F 100% 30.11 in 10.0 miles SE 3.5 mph - N/A   Overcast
10:31 AM 46.4°F 46.4°F 100% 30.11 in 10.0 miles SE 3.5 mph - N/A   Light Drizzle
10:55 AM 45.9°F 45.9°F 100% 30.11 in 10.0 miles Variable 4.6 mph - 0.01 in Rain Light Rain
10:58 AM 46.4°F 46.4°F 100% 30.11 in 10.0 miles SSE 5.8 mph - N/A Rain Rain
11:06 AM 46.4°F 46.4°F 100% 30.11 in 10.0 miles SSE 8.1 mph - N/A Rain Light Rain
11:11 AM 46.4°F 46.4°F 100% 30.11 in 10.0 miles SSE 8.1 mph - N/A Rain Light Rain
11:16 AM 46.4°F 46.4°F 100% 30.11 in 10.0 miles SSE 8.1 mph - N/A Rain Light Rain
11:18 AM 46.4°F 46.4°F 100% 30.11 in 6.0 miles South 10.4 mph - N/A Rain Light Rain
11:34 AM 46.4°F 46.4°F 100% 30.11 in 7.0 miles South 6.9 mph - N/A Rain Light Rain
11:55 AM 47.1°F 47.1°F 100% 30.10 in 5.0 miles South 8.1 mph - 0.06 in Rain Light Rain
12:31 PM 48.2°F 48.2°F 100% 30.10 in 8.0 miles SSW 9.2 mph - N/A Rain Light Rain
12:55 PM 47.8°F 47.8°F 100% 30.10 in 9.0 miles SSW 9.2 mph - 0.03 in   Light Drizzle
1:12 PM 48.2°F 48.2°F 100% 30.09 in 6.0 miles SSW 9.2 mph - N/A Rain Light Rain
1:18 PM 48.2°F 48.2°F 100% 30.10 in 5.0 miles SSW 5.8 mph - N/A   Light Drizzle
1:22 PM 48.2°F 48.2°F 100% 30.09 in 7.0 miles South 9.2 mph - N/A   Overcast
1:55 PM 48.4°F 48.4°F 100% 30.09 in 10.0 miles South 10.4 mph - 0.00 in   Overcast
2:06 PM 48.2°F 48.2°F 100% 30.09 in 10.0 miles SSW 9.2 mph - N/A   Overcast
2:36 PM 48.2°F 48.2°F 100% 30.09 in 10.0 miles SSW 10.4 mph - N/A   Overcast
2:55 PM 49.5°F 49.5°F 100% 30.09 in 10.0 miles SSW 10.4 mph - N/A   Overcast
3:10 PM 50.0°F 50.0°F 100% 30.09 in 10.0 miles SSW 10.4 mph - N/A   Overcast
3:30 PM 50.0°F 50.0°F 100% 30.10 in 10.0 miles SSW 10.4 mph - N/A   Mostly Cloudy
3:35 PM 50.0°F 50.0°F 100% 30.11 in 10.0 miles SSW 11.5 mph - N/A   Mostly Cloudy
3:55 PM 49.6°F 49.6°F 100% 30.12 in 10.0 miles SSW 10.4 mph - N/A   Scattered Clouds
4:05 PM 50.0°F 50.0°F 100% 30.12 in 10.0 miles SSW 9.2 mph - N/A   Scattered Clouds
4:23 PM 50.0°F 50.0°F 100% 30.12 in 10.0 miles SSW 9.2 mph - N/A   Scattered Clouds
4:49 PM 50.0°F 50.0°F 100% 30.12 in 10.0 miles South 9.2 mph - N/A   Overcast
4:55 PM 49.3°F 49.3°F 100% 30.11 in 10.0 miles SSW 9.2 mph - N/A   Overcast
5:38 PM 50.0°F 50.0°F 100% 30.13 in 10.0 miles SSW 5.8 mph - N/A   Overcast
5:55 PM 49.3°F 49.3°F 100% 30.13 in 10.0 miles South 5.8 mph - N/A   Overcast
6:55 PM 49.1°F 49.1°F 100% 30.14 in 10.0 miles SSW 5.8 mph - N/A   Mostly Cloudy
7:55 PM 48.7°F 48.7°F 100% 30.14 in 10.0 miles South 8.1 mph - N/A   Overcast
8:21 PM 48.2°F 48.2°F 100% 30.13 in 10.0 miles South 10.4 mph - N/A   Overcast
8:55 PM 49.3°F 49.3°F 100% 30.14 in 10.0 miles South 12.7 mph - N/A   Overcast
9:06 PM 50.0°F 50.0°F 100% 30.14 in 10.0 miles South 13.8 mph - N/A   Overcast
9:55 PM 49.5°F 49.5°F 100% 30.16 in 10.0 miles South 9.2 mph - N/A   Mostly Cloudy
10:00 PM 50.0°F 50.0°F 100% 30.16 in 10.0 miles South 8.1 mph - N/A   Mostly Cloudy
10:02 PM 50.0°F 50.0°F 100% 30.16 in 10.0 miles SSW 8.1 mph - N/A Rain Light Rain
10:30 PM 50.0°F 50.0°F 100% 30.17 in 10.0 miles South 9.2 mph - N/A   Mostly Cloudy
10:55 PM 49.1°F 49.1°F 100% 30.17 in 10.0 miles SSW 10.4 mph - 0.00 in   Overcast
11:55 PM 48.6°F 48.6°F 100% 30.17 in 10.0 miles South 12.7 mph 21.9 mph N/A   Scattered Clouds
Moon Phase
Nov. 03 Nov. 06 Nov. 13 Nov. 20 Nov. 28
Sunrise:07:38 AM (PDT) Moon Rise:09:07 PM (PDT)11/3
Sunset:05:29 PM (PDT) Moon Set:11:53 AM (PDT)11/3

Copyright © 2014 The Weather Underground, Inc.